Weather in Yeyskoye Ukrepleniye

Russia / Krasnodar Krai     46°42′28″N   38°36′52″E
temp.,
°C
wind,
m/s
gust,
m/s
humid.,
%
clouds,
%
prec.,
mm/h
press.,
hPa
HPBL,
m
22 october, fri
fri2200:00+10ssw5138011 0.0 1019456
03:00+10ssw614868 0.0 1018463
06:00+11ssw6149095 0.0 1018444
09:00+14sw814815 0.0 1018545
12:00+17sw912625 0.0 1018701
15:00+17sw811595 0.0 1017681
18:00+14sw5107550 0.0 1017229
21:00+14ssw612805 0.0 1018261
23 october, sat
sat2300:00+13ssw51091100 0.0 1017215
03:00+12ssw499554 0.0 1017168
06:00+12ssw4893100 0.0 1017164
09:00+14sw4885100 0.0 1018272
12:00+17sw6871100 0.0 1017563
15:00+16wsw6867100 0.0 1017546
18:00+15sw4878100 0.0 1017252
21:00+13w468592 0.0 1018147
24 october, sun
sun2400:00+13nnw4870100 0.1 1019405
03:00+12n2569100 0.3 1020373
06:00+12n4756100 0.0 1020321
09:00+11n4552100 0.0 1022374
12:00+12nnw4542100 0.0 1022776
15:00+12nw4540100 0.0 10211104
18:00+11nw4651100 0.0 1022563
21:00+10nw365226 0.0 1022437
25 october, mon
mon2500:00+9nw685515 0.0 1022606
03:00+7nw8117199 0.0 1023870
06:00+5nnw81070100 0.0 10251137
09:00+6nnw896387 0.1 10271327
12:00+7nnw664993 0.0 10291576
15:00+8nnw564475 0.1 10301579
18:00+7n46466 0.0 1031560
21:00+6nne5651100 0.0 1032521
26 october, tue
tue2600:00+5ne35555 0.0 1033346
03:00+4nne46602 0.0 1033304
06:00+3ne45641 0.0 1034258
09:00+4ene45592 0.0 1035531
12:00+7ene45420 0.0 1034923
15:00+8ene44360 0.0 1032993
18:00+7ene45390 0.0 1031290
21:00+5e46430 0.0 1031179